Tracking 20083 objects as of 9-Dec-2019
HD Live streaming from Space Station
objects crossing your sky now

PSLV DEB


PSLV DEB is no longer on orbit


NORAD ID: 43106
Int'l Code: 2017-008DK
Perigee: N/A
Apogee: N/A
Inclination: N/A
Period: N/A
Semi major axis: N/A
RCS: N/A
Launch date: February 15, 2017
Source: India (IND)
Launch site: SRIHARIKOTA (SRI)
Decay date: 2018-11-02

Note: This is SATELLITE DEBRIS
aabbcc
Your satellite tracking list
Your tracking list is empty




NASA's NSSDC Master Catalog

Two Line Element Set (TLE):
1 43106U 17008DK  18306.47083182  .22008990  24610-5  36862-2 0  9996
2 43106  97.4234  21.8994 0011543 308.8152  51.2112 16.33109565 46550
Source of the keplerian elements: AFSPC